Flag for Jordan Weather past 2 weeks in Amman, Jordan

Now
81 °F

Clear.


Feels Like: 80 °F
Forecast: 74 / 92 °F
Wind: 9 mph from West

Location: Amman Airport

Current Time: Jul 31, 2015 at 2:11:18 AM

Latest Report: Jul 30, 2015 at 11:00 PM


Visibility: 4 mi

Pressure: 29.83 "Hg (27.18 "Hg at 816m altitude)

Humidity: 30%

Dew point: 46 °F

Location of AmmanLocation

Historic Weather in Amman — Graph

°F

Amman temperature yesterday

Maximum temperature yesterday: 91 °F (at 3:00 PM)
Minimum temperature yesterday: 75 °F (at 2:00 AM)
Average temperature yesterday: 83 °F

Past Weeks' High & Low Weather Summary

 TemperatureHumidityPressure
High99 °F (Jul 25, 2:00 PM)69% (Jul 28, 6:00 AM)29.92 "Hg (Jul 28, 6:00 AM)
Low68 °F (Jul 21, 6:00 AM)9% (Jul 23, 3:00 PM)29.77 "Hg (Jul 21, 3:00 PM)
Average82 °F31%29.84 "Hg
* Reported Jul 15 11:00 PM — Jul 30 11:00 PM, Amman, Weather by CustomWeather, © 2015

Note: Actual official high and low records may vary slightly from our data, if they occured in-between our weather recording intervals... More about our weather records

Advertising

Amman weather history for previous 24 hours

 ConditionsComfort  
Time TempWeatherWind HumidityBarometerVisibility
11:00 PM
Thu, Jul 30
81 °FClear.9 mph30%29.83 "Hg4 mi
10:00 PM81 °FClear.No wind30%29.83 "Hg4 mi
9:00 PM82 °FClear.6 mph35%29.83 "Hg4 mi
8:00 PM86 °FHaze.12 mph25%29.83 "Hg3 mi
7:00 PM91 °FHaze.12 mph18%29.83 "Hg3 mi
6:00 PM91 °FHaze.12 mph20%29.83 "Hg3 mi
5:00 PM91 °FHaze.12 mph18%29.83 "Hg3 mi
4:00 PM91 °FHaze.12 mph18%29.83 "Hg3 mi
3:00 PM91 °FHaze.12 mph18%29.83 "Hg3 mi
2:00 PM90 °FHaze.13 mph20%29.86 "Hg3 mi
1:00 PM88 °FHaze.8 mph22%29.86 "Hg3 mi
12:00 PM86 °FHaze.12 mph24%29.86 "Hg3 mi
11:00 AM86 °FHaze.14 mph24%29.83 "Hg3 mi
10:00 AM82 °FHaze.10 mph21%29.83 "Hg3 mi
9:00 AM81 °FHaze.7 mph18%29.83 "Hg3 mi
8:00 AM77 °FHaze.9 mph39%29.83 "Hg3 mi
7:00 AM75 °FHaze.7 mph47%29.83 "Hg3 mi
6:00 AM75 °FHaze.7 mph44%29.83 "Hg3 mi
5:00 AM75 °FHaze.7 mph50%29.83 "Hg3 mi
4:00 AM75 °FHaze.3 mph50%29.83 "Hg3 mi
3:00 AM75 °FHaze.7 mph50%29.83 "Hg3 mi
2:00 AM75 °FHaze.No wind54%29.83 "Hg3 mi
Weather by CustomWeather, © 2015

See weather overviewHow to use our weather pages